Kosmos-2379

operational
NORAD ID: 26892 Int'l Des: 2001-037 Owner: PVO Country: RU
MEOCIRCULAR
追跡 地上

Kosmos-2379について

説明を読み込み中...

リアルタイム位置

3D地球を読み込み中...

次回通過

高度履歴

Altitude vs Time

uPlot chart will show altitude changes over time

軌道要素

1 26892U 01037A 26071.53365160 -.00000357 00000-0 00000-0 0 9999
2 26892 13.1804 14.9786 0006147 243.8562 229.2631 1.00318101 89893
Epoch: Mar 12, 2026 • Age: 33 hours

現在のステータス

高度 35797.9 km
速度 3.07 km/s
衛星直下点 10.37°N, 125.22°E
打ち上げ日 Aug 24, 2001
運用期間 24.5 years
タイプ other

技術仕様

分類 Payload
質量 2200.00 kg
乾燥質量 2100.00 kg
総質量 2200.00 kg
長さ 5.00 m
直径 2.00 m
スパン 10.00 m
形状 Step Cyl + 2 Pan
製造者 NPOL/KOMET
バスタイプ Prognoz
フェーズステータス In Orbit
所有者/国 PVO/RU

大規模コンステレーション

Loading constellations...